[[{"header":{"parameterUnit":"m.s-1","parameterCategory":1,"la1":30.2991,"la2":30.254,"lo1":-89.0895,"lo2":-89.0444,"dy":0.0017,"dx":0.0017,"nx":28,"ny":28,"refTime":"2025-09-14T09:00:00:Z","depth":0,"parameterNumber":2,"parameterNumberName":"U-component_of_WINDS"},"data":[0,0,0,0,0,0,0,0,0,0,0,0,0,0,0,0,0,0,0,0,0,0,0,0,0,0,0,0,0,0,0,0,0,0,0,0,0,0,0,0,0,0,0,0,0,0,0,0,0,0,0,0,0,0,0,0,0,0,1.9942,1.9941,0,1.9889,1.9888,1.9887,1.9811,1.9809,1.9808,1.9807,1.9751,1.9751,1.9751,0,0,0,0,0,0,0,0,0,0,0,0,0,1.9975,1.9975,1.9942,1.9941,1.994,1.9889,1.9888,1.9887,1.9811,1.9809,1.9808,1.9806,1.9752,1.9751,1.9751,0,0,0,0,0,0,0,0,0,0,0,0,0,1.9945,1.9975,1.9942,1.9896,1.9891,1.9889,1.9888,1.9887,1.9811,1.9809,1.9807,1.9805,1.9752,1.9751,1.9751,1.9789,0,0,1.975,1.975,0,0,0,0,0,0,0,0,1.9947,1.9944,1.9903,1.9899,1.9894,1.9854,1.9879,1.9854,1.9812,1.9842,1.9807,1.9804,1.9787,1.9784,1.9778,1.9786,1.9784,1.975,1.975,1.9749,1.9749,0,0,0,0,0,0,0,1.9949,1.9946,1.9921,1.9903,1.9897,1.9877,1.9871,1.9874,1.9826,1.9839,1.9833,1.9828,1.9784,1.9779,1.9776,1.9783,1.975,1.975,1.9749,1.9749,1.9815,1.9817,0,0,0,0,0,0,1.9958,1.9948,1.9922,1.9919,1.9916,1.9878,1.9871,1.9869,1.9826,1.9817,1.983,1.9825,1.978,1.9777,1.9774,1.9812,1.9749,1.9749,1.9749,1.9813,1.9815,1.9818,0,0,0,0,0,0,1.9959,1.9957,1.9924,1.9932,1.9926,1.988,1.9878,1.9869,1.9863,1.9819,1.981,1.9833,1.9779,1.9775,1.9785,1.9809,1.9749,1.9749,1.9811,1.9814,1.9816,1.9891,0,0,0,0,0,0,1.996,1.9957,1.9972,1.9933,1.9926,1.9937,1.988,1.9869,1.9863,1.9856,1.982,1.9812,1.9777,1.9786,1.9784,1.9808,1.9748,1.9808,1.9812,1.9816,1.9886,1.9896,1.9904,0,0,0,0,0,1.9962,1.9995,1.9973,1.997,1.9943,1.9939,1.9935,1.9894,1.9865,1.9879,1.985,1.9813,1.9808,1.9787,1.9785,1.9809,1.9806,1.9811,1.9815,1.9882,1.9894,1.9904,0,0,0,0,0,0,2.0039,1.999,1.9964,1.9986,1.9967,1.9926,1.9941,1.9909,1.9897,1.9891,1.984,1.9833,1.9849,1.983,1.9809,1.9841,1.9801,1.9805,1.9852,1.9864,1.9873,1.9876,1.9748,0,0,0,0,0,2.0058,2.0059,2.0016,2.004,2.0031,1.9988,1.9985,1.9955,1.9933,1.9924,1.9896,1.9876,1.9869,1.9866,1.9858,1.9884,1.9873,1.9899,1.9908,1.9916,1.9919,1.9928,1.9938,1.9832,1.9832,1.9832,0,0,2.0099,2.0072,2.0075,2.0054,2.0036,2.0036,1.9982,1.9986,1.9985,1.9925,1.9931,1.9911,1.9884,1.9902,1.9908,1.9887,1.9946,1.9921,1.9928,1.9927,1.9933,1.9943,1.9952,1.9835,1.9834,1.9834,0,0,2.0171,2.0153,2.0169,2.0151,2.0124,2.0095,2.0099,2.0062,2.0045,2.0052,2.0006,2.0004,1.9995,1.9976,1.9966,2.0031,1.9995,2.003,2.0077,2.0086,2.0095,2.0102,2.0121,2.0129,2.0034,2.0034,2.0034,0,2.0225,2.0224,2.0181,2.0186,2.0177,2.0123,2.0138,2.0123,2.0095,2.0089,2.0066,2.005,2.003,2.004,2.0055,2.005,2.0051,2.0032,2.0097,2.0104,2.011,2.0128,2.0136,2.0038,2.0038,2.0037,2.0037,0,2.0289,2.0289,2.0306,2.0278,2.0272,2.0282,2.0239,2.0237,2.0208,2.0181,2.0187,2.0159,2.0143,2.0144,2.0116,2.015,2.0137,2.0107,2.0065,2.0125,2.014,2.0147,2.0044,2.0043,2.0041,2.004,0,0,2.0407,2.0356,2.0362,2.0348,2.0314,2.0312,2.032,2.0304,2.0301,2.0284,2.0286,2.0279,2.0249,2.0238,2.0207,2.0216,2.0264,2.0184,2.0182,2.0197,2.0296,2.0317,2.0326,2.0242,2.0243,2.0244,2.0297,0,2.0471,2.048,2.0441,2.046,2.0458,2.0406,2.0412,2.039,2.0365,2.0359,2.0331,2.0325,2.0289,2.0281,2.0287,2.0257,2.0283,2.0253,2.0241,2.0241,2.0246,2.0334,2.0357,2.0408,2.0303,2.0304,2.0305,0,2.0546,2.0531,2.055,2.0512,2.0509,2.0516,2.0496,2.0492,2.0466,2.0447,2.0433,2.0398,2.04,2.0362,2.0363,2.0343,2.0336,2.0321,2.0322,2.0316,2.0275,2.0328,2.0424,2.0431,2.0315,2.0314,2.0313,0,2.0626,2.0611,2.0619,2.0609,2.0567,2.0571,2.0554,2.0526,2.0518,2.0501,2.0495,2.0479,2.0469,2.0457,2.0417,2.0394,2.0421,2.0381,2.0403,2.0404,2.0409,2.0409,2.0502,2.041,2.041,2.041,2.041,0,2.0699,2.0711,2.0654,2.0659,2.0671,2.0626,2.0638,2.0615,2.0591,2.0589,2.0544,2.0543,2.0492,2.0485,2.0454,2.0457,2.0454,2.0437,2.0428,2.0439,2.0441,2.0431,2.0426,2.0412,2.0411,2.0411,2.0411,0,2.0789,2.0752,2.0757,2.0716,2.0706,2.0716,2.068,2.0682,2.0654,2.0652,2.0649,2.0604,2.0593,2.0553,2.0533,2.0511,2.0523,2.0508,2.0532,2.0525,2.0548,2.0546,2.0636,2.0644,2.0551,2.0552,2.0553,0,2.0837,2.0845,2.0804,2.08,2.0784,2.0778,2.0769,2.0725,2.0718,2.0688,2.0692,2.0678,2.0663,2.0648,2.0613,2.0596,2.0578,2.0611,2.0575,2.0585,2.0574,2.0573,2.0572,2.0618,2.0619,2.062,2.0621,0,2.0924,2.0904,2.0894,2.0877,2.0867,2.0852,2.0833,2.0832,2.0782,2.0776,2.0764,2.0753,2.0731,2.0716,2.0693,2.0673,2.0637,2.0633,2.0636,2.0646,2.0658,2.0648,2.0549,2.063,2.0629,2.0629,2.0628,2.0628,2.0991,2.0995,2.0967,2.0956,2.0937,2.092,2.0919,2.0891,2.088,2.0859,2.0834,2.0824,2.0795,2.0761,2.0744,2.0734,2.0715,2.0721,2.0722,2.0724,2.0728,2.0662,2.073,2.073,2.073,2.0729,2.0729,0,2.1073,2.1052,2.1043,2.1017,2.1008,2.0978,2.0955,2.0949,2.0941,2.0918,2.0905,2.0889,2.0874,2.0838,2.0819,2.0818,2.0801,2.0814,2.0812,2.0807,2.0747,2.0745,2.0827,2.0827,2.0827,2.0827,2.0827,2.0827,2.1114,2.1117,2.1095,2.1088,2.1067,2.1057,2.1046,2.103,2.1011,2.0996,2.0983,2.096,2.093,2.0908,2.0892,2.0882,2.0875,2.0893,2.0877,2.0821,2.0812,2.0803,2.08,2.0893,2.0893,2.0936,2.0937,2.0937]},{"header":{"parameterUnit":"m.s-1","parameterCategory":1,"la1":30.2991,"la2":30.254,"lo1":-89.0895,"lo2":-89.0444,"dy":0.0017,"dx":0.0017,"nx":28,"ny":28,"refTime":"2025-09-14T09:00:00:Z","depth":0,"parameterNumber":3,"parameterNumberName":"V-component_of_WINDS"},"data":[0,0,0,0,0,0,0,0,0,0,0,0,0,0,0,0,0,0,0,0,0,0,0,0,0,0,0,0,0,0,0,0,0,0,0,0,0,0,0,0,0,0,0,0,0,0,0,0,0,0,0,0,0,0,0,0,0,0,2.3422,2.3421,0,2.3374,2.3374,2.3373,2.3308,2.3307,2.3306,2.3305,2.3256,2.3256,2.3256,0,0,0,0,0,0,0,0,0,0,0,0,0,2.3455,2.3455,2.3422,2.3421,2.3421,2.3374,2.3374,2.3373,2.3308,2.3307,2.3306,2.3304,2.3256,2.3256,2.3256,0,0,0,0,0,0,0,0,0,0,0,0,0,2.3428,2.3455,2.3422,2.3383,2.3379,2.3375,2.3374,2.3373,2.3309,2.3307,2.3305,2.3304,2.3256,2.3256,2.3256,2.3286,0,0,2.3254,2.3254,0,0,0,0,0,0,0,0,2.3429,2.3426,2.3389,2.3385,2.3381,2.3345,2.3368,2.3344,2.3309,2.3335,2.3305,2.3303,2.3287,2.3284,2.3279,2.3284,2.3282,2.3254,2.3254,2.3254,2.3254,0,0,0,0,0,0,0,2.3431,2.3428,2.3403,2.3389,2.3384,2.3367,2.3361,2.3363,2.3321,2.3333,2.3328,2.3323,2.3285,2.3279,2.3277,2.3281,2.3254,2.3254,2.3254,2.3254,2.3306,2.3307,0,0,0,0,0,0,2.3439,2.343,2.3404,2.3402,2.3401,2.3368,2.3361,2.3359,2.3321,2.3314,2.3325,2.332,2.3281,2.3278,2.3275,2.3306,2.3254,2.3254,2.3253,2.3304,2.3306,2.3308,0,0,0,0,0,0,2.344,2.3437,2.3406,2.3414,2.3409,2.3369,2.3366,2.3358,2.3353,2.3315,2.3307,2.3327,2.328,2.3276,2.3283,2.3304,2.3253,2.3253,2.3302,2.3305,2.3307,2.337,0,0,0,0,0,0,2.3441,2.3438,2.3449,2.3415,2.3409,2.3416,2.3368,2.3359,2.3353,2.3347,2.3315,2.3308,2.3278,2.3284,2.3283,2.3302,2.3253,2.33,2.3303,2.3306,2.3366,2.3374,2.3382,0,0,0,0,0,2.3443,2.347,2.345,2.3448,2.3423,2.3417,2.3414,2.3378,2.3355,2.3365,2.334,2.3309,2.3302,2.3286,2.3283,2.3303,2.3299,2.3302,2.3306,2.3362,2.3373,2.3381,0,0,0,0,0,0,2.3508,2.3464,2.3443,2.3459,2.3442,2.3406,2.3419,2.3391,2.338,2.3375,2.3332,2.3325,2.3337,2.3321,2.3303,2.3329,2.3295,2.3299,2.3339,2.3349,2.3356,2.3359,2.3252,0,0,0,0,0,2.3524,2.3523,2.3486,2.3504,2.3497,2.3459,2.3456,2.343,2.3411,2.3403,2.3379,2.3361,2.3354,2.3351,2.3343,2.3364,2.3355,2.3376,2.3384,2.3391,2.3394,2.3401,2.3409,2.332,2.332,2.332,0,0,2.3557,2.3534,2.3536,2.3516,2.35,2.35,2.3454,2.3456,2.3454,2.3403,2.3408,2.339,2.3367,2.338,2.3385,2.3367,2.3416,2.3395,2.3401,2.34,2.3406,2.3414,2.3422,2.3322,2.3322,2.3321,0,0,2.3618,2.3601,2.3613,2.3598,2.3574,2.3548,2.3552,2.3519,2.3505,2.3509,2.347,2.3468,2.3459,2.3443,2.3434,2.3488,2.3458,2.3487,2.3527,2.3535,2.3542,2.3548,2.3565,2.3572,2.349,2.349,2.349,0,2.3662,2.366,2.3623,2.3627,2.3619,2.3572,2.3584,2.3571,2.3546,2.3541,2.3521,2.3506,2.3488,2.3496,2.3509,2.3504,2.3505,2.3489,2.3544,2.3549,2.3554,2.357,2.3577,2.3494,2.3493,2.3493,2.3493,0,2.3715,2.3715,2.3728,2.3704,2.3697,2.3705,2.3668,2.3666,2.3641,2.3618,2.3622,2.3598,2.3583,2.3584,2.356,2.3588,2.3577,2.3552,2.3516,2.3567,2.3581,2.3587,2.3499,2.3497,2.3496,2.3496,0,0,2.3814,2.377,2.3775,2.3762,2.3732,2.3731,2.3736,2.3722,2.372,2.3704,2.3706,2.3699,2.3674,2.3664,2.3637,2.3645,2.3686,2.3617,2.3616,2.3629,2.3713,2.3731,2.3739,2.3666,2.3667,2.3668,2.3714,0,2.3867,2.3874,2.384,2.3855,2.3853,2.3809,2.3813,2.3795,2.3773,2.3768,2.3744,2.3738,2.3707,2.37,2.3705,2.368,2.3702,2.3676,2.3666,2.3666,2.3671,2.3746,2.3766,2.381,2.3719,2.372,2.3721,0,2.393,2.3917,2.3932,2.3899,2.3897,2.3902,2.3885,2.3881,2.3858,2.3842,2.383,2.38,2.3801,2.3769,2.377,2.3753,2.3747,2.3734,2.3735,2.3731,2.3696,2.3743,2.3824,2.383,2.373,2.3729,2.3728,0,2.3998,2.3984,2.3991,2.3982,2.3945,2.3949,2.3934,2.391,2.3903,2.3888,2.3883,2.3869,2.3861,2.385,2.3816,2.3796,2.382,2.3786,2.3805,2.3806,2.3811,2.3811,2.389,2.3811,2.381,2.381,2.381,0,2.4059,2.4069,2.402,2.4024,2.4034,2.3995,2.4006,2.3986,2.3965,2.3963,2.3925,2.3924,2.388,2.3874,2.3848,2.3851,2.3848,2.3834,2.3826,2.3836,2.3838,2.383,2.3826,2.3812,2.3812,2.3811,2.3811,0,2.4136,2.4104,2.4108,2.4073,2.4064,2.4072,2.4042,2.4043,2.4019,2.4017,2.4015,2.3977,2.3968,2.3933,2.3916,2.3898,2.3909,2.3896,2.3916,2.3911,2.3931,2.3929,2.4008,2.4015,2.3933,2.3934,2.3934,0,2.4176,2.4183,2.4148,2.4145,2.4131,2.4126,2.4118,2.408,2.4074,2.4048,2.4053,2.404,2.4028,2.4015,2.3985,2.3971,2.3956,2.3985,2.3954,2.3963,2.3954,2.3953,2.3952,2.3991,2.3992,2.3993,2.3994,0,2.4251,2.4234,2.4225,2.421,2.4203,2.4189,2.4173,2.4172,2.413,2.4124,2.4114,2.4105,2.4087,2.4074,2.4055,2.4038,2.4008,2.4004,2.4007,2.4016,2.4027,2.4019,2.3932,2.4002,2.4001,2.4,2.4,2.4,2.4309,2.4312,2.4288,2.4278,2.4263,2.4249,2.4248,2.4223,2.4215,2.4197,2.4175,2.4167,2.4143,2.4114,2.41,2.4092,2.4076,2.4081,2.4082,2.4084,2.4087,2.403,2.4089,2.4088,2.4088,2.4088,2.4088,0,2.4379,2.4361,2.4353,2.4332,2.4325,2.4298,2.4279,2.4274,2.4268,2.4248,2.4237,2.4225,2.4212,2.4181,2.4165,2.4165,2.4151,2.4162,2.4161,2.4157,2.4104,2.4102,2.4174,2.4174,2.4174,2.4174,2.4174,2.4174,2.4414,2.4418,2.4399,2.4393,2.4375,2.4368,2.4359,2.4345,2.4329,2.4317,2.4306,2.4287,2.4262,2.4244,2.423,2.4221,2.4216,2.4232,2.4218,2.4169,2.4161,2.4153,2.415,2.4231,2.4232,2.4271,2.4271,2.4272]}]]